Weather Roundup
Issued by NWS

Home | Current Version | Previous Version | Graphics & Text | Print | Product List | Glossary Off
Versions: 1 2 3 4 5 6 7 8 9 10 11 12 13 14 15 16 17 18 19 20 21 22 23 24 25 26 27 28 29 30 31 32 33 34 35 36 37 38 39 40 41 42 43 44 45 46 47 48 49 50

517
NZUS93 KARX 120710
HRRWXR

CURRENT HOURLY OBSERVATIONS ACROSS
MUCH OF THE UPPER MISSISSIPPI VALLEY
NATIONAL WEATHER SERVICE LA CROSSE WI
100 AM CST FRI FEB 12 2016


...SOUTHEAST MINNESOTA...


CITY           SKY/WX    TMP DP  RH WIND       PRES   REMARKS
ROCHESTER      CLOUDY    12   7  80 W9        30.17F WCI   0
ROCHESTER/MAYO CLOUDY    15   9  78 W12       30.18F WCI   2
WINONA         LGT SNOW  16  10  79 W6        30.22F WCI   7
AUSTIN         FLURRIES  12   9  85 W7        30.19S WCI   2
ALBERT LEA     MOCLDY    12  10  92 W6        30.18F WCI   3
DODGE CENTER   FLURRIES  12   9  85 W7        30.16F WCI   2
PRESTON        FLURRIES  11   6  78 W7        30.18S WCI   0
OWATONNA       LGT SNOW  12   9  85 W7        30.19F WCI   2
FARIBAULT      LGT SNOW  14  10  85 W6        30.20F WCI   5
$$

...ELSEWHERE IN MINNESOTA...


CITY           SKY/WX    TMP DP  RH WIND       PRES   REMARKS
MINNEAPOLIS    CLOUDY    14   8  77 W6        30.20F WCI   5
INTNL FALLS    CLEAR      0  -8  69 NW10      30.15R WCI -16
DULUTH         CLOUDY     8   0  69 NW14      30.08F WCI  -8
RED WING       CLOUDY    14   9  79 NW3       30.21S
REDWOOD FALLS  CLOUDY    17  12  80 NW14      30.23S WCI   3
MANKATO        CLOUDY    16  10  79 W7        30.21S WCI   6
WORTHINGTON    CLOUDY    16  10  79 NW10      30.21S WCI   3
FAIRMONT       CLOUDY    16   9  73 W12       30.21S WCI   3
$$

...SOUTHWEST WISCONSIN...


CITY           SKY/WX    TMP DP  RH WIND       PRES   REMARKS
LA CROSSE      LGT SNOW  14   6  70 W7        30.21F WCI   4
PRAIRIE DU CHI CLOUDY    15   3  60 CALM      30.23S
BOSCOBEL       CLOUDY    15   4  61 SW5       30.22F WCI   8
LONE ROCK      CLOUDY    14   3  61 W7        30.21F WCI   4
PLATTEVILLE    CLOUDY    14   6  70 W3        30.19F
FORT MC COY    CLOUDY    14   4  64 W6        30.19F WCI   5
CAMP DOUGLAS   CLOUDY    14   1  57 W8        30.15F WCI   2
VIROQUA        CLOUDY    12   4  71 W9        30.15F WCI  -1
WIS DELLS      CLOUDY    14   0  52 W8        30.16F WCI   3
$$

...ELSEWHERE IN WISCONSIN...


CITY           SKY/WX    TMP DP  RH WIND       PRES   REMARKS
MILWAUKEE      CLOUDY    18   2  49 W9        30.17F WCI   7
MADISON        CLOUDY    15   1  53 VRB5      30.17F WCI   8
GREEN BAY      CLOUDY    15   1  53 W10       30.12F WCI   2
EAU CLAIRE     CLOUDY    14   5  67 W9        30.17F WCI   2
BLACK RVR FLS  CLOUDY    14   2  59 W5        30.17F WCI   6
MEDFORD        CLOUDY    11   1  65 W9        30.07F WCI  -2
WAUSAU         CLOUDY    13   2  61 W12       30.08F WCI  -1
WIS RAPIDS     CLOUDY    14  -1  51 W8        30.14F WCI   3
MARSHFIELD     CLOUDY    13   1  59 W12       30.10F WCI  -1
RICE LAKE      CLOUDY    13   7  78 W6        30.16F WCI   4
$$

...NORTHEAST IOWA...


CITY           SKY/WX    TMP DP  RH WIND       PRES   REMARKS
WATERLOO       CLOUDY    12   6  77 CALM      30.21F
DUBUQUE        CLOUDY    11   7  84 CALM      30.19F
DECORAH        CLOUDY    12   5  73 W3        30.18F
MASON CITY     CLOUDY    12   8  84 W9        30.22S WCI   0
CHARLES CITY   CLOUDY    12   5  73 W6        30.21S WCI   3
OELWEIN        CLOUDY    12   5  73 SW5       30.20F WCI   4
$$

...ELSEWHERE IN IOWA...


CITY           SKY/WX    TMP DP  RH WIND       PRES   REMARKS
DES MOINES     CLOUDY    19  15  84 S3        30.22F
IOWA CITY      CLEAR     17  14  88 CALM      30.25F
FORT DODGE     CLOUDY    16  10  79 W3        30.24R
MARSHALLTOWN   CLOUDY    17  13  84 CALM      30.21F
CEDAR RAPIDS   CLOUDY    17  14  88 SW5       30.21F WCI  10
$$

...NORTHERN ILLINOIS...


CITY           SKY/WX    TMP DP  RH WIND       PRES   REMARKS
CHICAGO-OHARE  CLOUDY    19   7  59 W7        30.20F WCI  10
CHICAGO-MIDWAY CLOUDY    20   6  55 W5        30.22F WCI  13
MOLINE         CLOUDY    22  12  65 W7        30.23F WCI  13
ROCKFORD       CLOUDY    19   6  57 SW5       30.22F WCI  12
PEORIA         CLOUDY    23  11  60 CALM      30.24F
$$

NOTE: "FAIR" INDICATES FEW OR NO CLOUDS BELOW 12,000 FEET WITH NO
SIGNIFICANT WEATHER AND/OR OBSTRUCTIONS TO VISIBILITY. WIND
SPEEDS ARE IN MILES-PER-HOUR.




USA.gov is the U.S. government's official web portal to all federal, state and local government web resources and services.